Volver al catálogo

OPS 4682 DEB

ActivoPO
NORAD 38421·DEBRIS·🇺🇸 United States

Lanzado Apr 3, 1965 desde Vandenberg Space Force Base

Loading…

Próximos Pases (próximas 24 horas)

TLE

ActualizadoSource: Space-Track

Época: Sep 13, 2026, 00:45 UTC

1 38421U 65027EA  26256.03182306 -.00000175  00000-0 -52567-3 0  9995
2 38421  90.2677  11.1816 0034832  60.8802 299.5805 13.10007218680121

Sigue OPS 4682 DEB en tiempo real con AllMySat

Download on the App Store